Location: Bucquoy
(50.1391°N, 2.7097°E)
Time: 21:55:02
(UTC+00:00)

SL-16 R/B - Pass Details

Date: 06 May 2021
Orbit: 984 x 1007 km, 99.5° (Epoch: 21 June)

Event Time Altitude Azimuth Distance (km) Brightness Sun altitude
Exits shadow 02:06:08 24° 200° (SSW) 1,970 3.5 -16.5°
Maximum altitude 02:09:42 46° 261° (W) 1,324 2.9 -16.2°
Drops below altitude 10° 02:15:44 10° 334° (NNW) 2,794 5.2 -15.6°
Sets 02:18:21 0° 341° (NNW) 3,747 6.0 -15.3°
